Regional Weather Roundup
Issued by NWS

Home | Current Version | Previous Version | Text Only | Print | Product List | Glossary On
Versions: 1 2 3 4 5 6 7 8 9 10 11 12 13 14 15 16 17 18 19 20 21 22 23 24 25 26 27 28 29 30 31 32 33 34 35 36 37 38 39 40 41 42 43 44 45 46 47 48 49 50
000
ASUS43 KLMK 251802
RWRKY
KENTUCKY REGIONAL WEATHER ROUNDUP
NATIONAL WEATHER SERVICE LOUISVILLE KY
200 PM EDT FRI JUL 25 2014

NOTE "FAIR" INDICATES FEW OR NO CLOUDS BELOW 12,000 FEET
WITH NO SIGNIFICANT WEATHER AND/OR OBSTRUCTIONS TO VISIBILITY.

KYZ001>023-026-027-061>063-070>075-251900-
WESTERN AND SOUTH CENTRAL KENTUCKY

CITY           SKY/WX    TMP DP  RH WIND       PRES   REMARKS
PADUCAH        PTSUNNY   83  59  44 VRB6      30.05R
HENDERSON      PTSUNNY   77  55  47 SE3       30.05R
OWENSBORO      MOSUNNY   79  55  43 N5        30.05F
HOPKINSVILLE   SUNNY     81  56  42 NE6       30.04F
BOWLING GREEN  PTSUNNY   81  55  40 VRB3      30.05F
GLASGOW        PTSUNNY   80  55  41 CALM      30.06F
$$

KYZ024-025-028>034-038-045-046-053-251900-
NORTH CENTRAL KENTUCKY

CITY           SKY/WX    TMP DP  RH WIND       PRES   REMARKS
LOUISVILLE/SDF PTSUNNY   81  53  37 SW5       30.06F
LOUISVILLE/LOU SUNNY     80  52  37 MISG      30.07F
FORT KNOX      MOSUNNY   78  58  51 VRB3      30.06F
$$

KYZ035>037-039>044-047>052-055>060-089>105-251900-
NORTHEAST KENTUCKY

CITY           SKY/WX    TMP DP  RH WIND       PRES   REMARKS
LEXINGTON      SUNNY     78  55  44 VRB3      30.07F
COVINGTON      MOSUNNY   77  53  43 N3        30.07F
FRANKFORT      SUNNY     81  54  39 VRB5      30.05F
$$

KYZ054-064>069-076>088-106>120-251900-
SOUTHEAST KENTUCKY

CITY           SKY/WX    TMP DP  RH WIND       PRES   REMARKS
JACKSON        PTSUNNY   73  57  57 CALM      30.10F
LONDON         MOSUNNY   73  60  63 SE3       30.09F
SOMERSET       SUNNY     72  63  73 CALM      30.09F
MIDDLESBORO    MOSUNNY   78  64  61 E5        30.07F
MONTICELLO     CLEAR     75  63  66 NE6       30.09F
$$




USA.gov is the U.S. government's official web portal to all federal, state and local government web resources and services.